Regional Weather Roundup
Issued by NWS

Home | Current Version | Previous Version | Graphics & Text | Print | Product List | Glossary On
Versions: 1 2 3 4 5 6 7 8 9 10 11 12 13 14 15 16 17 18 19 20 21 22 23 24 25 26 27 28 29 30 31 32 33 34 35 36 37 38 39 40 41 42 43 44 45 46 47 48 49 50
000
ASUS43 KLOT 272309
RWRIL

ILLINOIS REGIONAL WEATHER ROUNDUP
NATIONAL WEATHER SERVICE CHICAGO/ROMEOVILLE IL
600 PM CDT THU JUL 27 2017

NOTE: "FAIR" INDICATES FEW OR NO CLOUDS BELOW 12,000 FEET WITH NO
SIGNIFICANT WEATHER AND/OR OBSTRUCTIONS TO VISIBILITY.

* THESE STATIONS ARE NOT UNDER NWS QUALITY CONTROL. THEY ALSO MAY NOT
  REPORT WEATHER SUCH AS PRECIPITATION OR FOG.

ILZ001-002-007-009-015-016-024-280000-
NORTHWEST ILLINOIS

CITY           SKY/WX    TMP DP  RH WIND       PRES   REMARKS
MOLINE         MOSUNNY   83  68  60 NE13      29.92F HX  86
STERLING*      SUNNY     82  67  60 NE8       29.94S HX  84
SAVANNA*       SUNNY     83  65  55 NE8       29.94F HX  84
$$

ILZ003-004-008-010-011-017-018-280000-
NORTH CENTRAL ILLINOIS

CITY           SKY/WX    TMP DP  RH WIND       PRES   REMARKS
ROCKFORD       MOSUNNY   83  59  44 NE14      29.96S HX  83
FREEPORT*      MOSUNNY   79  63  57 NE10      29.98S HX  81
ROCHELLE*      SUNNY     79  63  58 NE15      29.95S HX  81
DE KALB*       SUNNY     78  61  56 NE15      29.96S
PERU*          SUNNY     80  65  59 NE13      29.92S HX  82
$$

ILZ005-006-012>014-019>023-280000-
NORTHEAST ILLINOIS

CITY           SKY/WX    TMP DP  RH WIND       PRES   REMARKS
CHICAGO-OHARE  MOSUNNY   79  56  45 N17       29.94S HX  80
CHICAGO-MIDWAY MOSUNNY   79  62  56 N16       29.92S HX  80
AURORA         SUNNY     80  61  52 NE14      29.94S HX  81
LANSING*       SUNNY     75  64  69 N13G21    29.93S
JOLIET*        SUNNY     82  60  48 N10G18    29.91S HX  82
WAUKEGAN       SUNNY     76  59  55 NE10G18   29.95S
DUPAGE AIRPORT SUNNY     80  60  50 N16G23    29.93S HX  81
KANKAKEE*      SUNNY     77  70  78 NE16      29.91S
WHEELING       SUNNY     78  59  51 NE13G24   29.96S
MORRIS*        SUNNY     80  64  58 NE8       29.91R HX  82
ROMEOVILLE*    SUNNY     79  56  43 NE21      29.92S HX  80
NORTHERLY ISL    N/A     74  64  71 MISG        N/A
$$

LMZ740>746-280000-
SOUTHERN LAKE MICHIGAN

STATION/POSITION SKY/WX   TEMP    WIND        PRES    VSBY  WAVE
                          AIR SEA DIR/SP/G                  HT/PER
                          (F)     (DEG/KT/KT) (MB)    (MI)  (FT/S)
SOUTHERN BUOY              70 71   10/ 19/ 21 1013.4          4/ 5
WILMETTE HARBOR            71 72  360/ 17/ 23   N/A           5/ 4
HARRISON CRIB              72     360/ 19/ 23   N/A
BURNHAM HARBOR             73                   N/A
CALUMET HARBOR             74     330/ 10/ 19 1013.2F
BURNS HARBOR               73     360/ 16/ 20 1013.5S
MICHIGAN CITY              74     350/ 20/ 23   N/A
MICHIGAN CITY 6N           73 75   10/ 17/ 21   N/A           6/ 5
ST. JOSEPH                 73 73   30/ 16/ 19 1012.5          4/ 5
$$

ILZ025>027-034>036-040-047-049-050-058-095>099-280000-
WEST-CENTRAL ILLINOIS

CITY           SKY/WX    TMP DP  RH WIND       PRES   REMARKS
QUINCY         SUNNY     83  70  64 N15       29.90S HX  87
GALESBURG*     SUNNY     82  72  71 N12       29.92F HX  86
MACOMB*        SUNNY     83  72  70 N10G16    29.93S HX  88
JACKSONVILLE*  CLOUDY    82  73  76 N6        29.88S HX  87
PITTSFIELD*    CLOUDY    82  74  76 N7        29.90S HX  89
$$

ILZ028>032-037-038-041>044-048-051>054-059>061-280000-
CENTRAL ILLINOIS

CITY           SKY/WX    TMP DP  RH WIND       PRES   REMARKS
PONTIAC        PTSUNNY   81  76  84 NE12      29.90S HX  88
BLOOMINGTON    MOSUNNY   82  72  71 NE13      29.90S HX  87
DECATUR        PTSUNNY   82  75  79 N5        29.87S HX  89
PEORIA         CLOUDY    84  73  69 NE7       29.89S HX  90
LACON*         PTSUNNY   82  73  74 NE8       29.90S HX  88
LINCOLN*       MOSUNNY   84  76  74 N10       29.87S HX  93
SPRINGFIELD    CLOUDY    85  75  72 NE9       29.87F HX  93
TAYLORVILLE    CLOUDY    76  74  96 CALM      29.88S
$$

ILZ033-039-045-046-055>057-062-063-280000-
EAST-CENTRAL ILLINOIS

CITY           SKY/WX    TMP DP  RH WIND       PRES   REMARKS
CHAMPAIGN      PTSUNNY   83  74  74 CALM      29.87F HX  89
RANTOUL*       MOSUNNY   85  74  68 NE9       29.88S HX  92
MATTOON        CLOUDY    78  76  93 NW9       29.86F HX  81
PARIS*         CLOUDY    77  75  94 W5        29.87F
$$

ILZ079-100>102-280000-
SOUTHWEST ILLINOIS

CITY           SKY/WX    TMP DP  RH WIND       PRES   REMARKS
ALTON          LGT RAIN  81  75  83 NW14      29.87S HX  86
BELLEVILLE     MOSUNNY   83  74  75 SW3       29.87F HX  89
CAHOKIA*       CLOUDY    81  75  82 CALM      29.86S HX  87
SPARTA*        MOSUNNY   85  72  65 W7        29.88F HX  91
$$

ILZ064>066-069>071-074>076-080>082-084>086-088>090-092>094-280000-
SOUTH-CENTRAL ILLINOIS

CITY           SKY/WX    TMP DP  RH WIND       PRES   REMARKS
CARBONDALE     CLOUDY    84  74  71 W7        29.87F HX  91
CAIRO*         CLOUDY    80  77  89 S3        29.88F HX  87
EFFINGHAM*     CLOUDY    82  76  82 W9        29.88S HX  88
MARION         PTSUNNY   82  81  94 NW5       29.88F HX  95
MT. VERNON     CLOUDY    85  75  72 VRB5      29.87F HX  93
CENTRALIA*     CLOUDY    85  77  78 SW6       29.86F HX  96
SALEM*         CLOUDY    84  74  72 W3        29.87F HX  92
METROPOLIS*    CLOUDY    82  76  81 S5        29.90S HX  90
$$

ILZ067-068-072-073-078-083-087-091-280000-
SOUTHEAST ILLINOIS

CITY           SKY/WX    TMP DP  RH WIND       PRES   REMARKS
LAWRENCEVILLE  CLOUDY    79  76  90 SW5       29.86S HX  83
FLORA*         CLOUDY    84  75  75 W7        29.86F HX  92
FAIRFIELD*     CLOUDY    83  76  78 CALM      29.85F HX  91
HARRISBURG*    CLOUDY    82  76  80 S5        29.88S HX  90
ROBINSON*      CLOUDY    80  74  81 W7        29.86F HX  84
CARMI*         CLOUDY    84  76  77 SW6       29.86F HX  93
$$

ABBREVIATIONS USED IN REMARKS
   TC - TEMPERATURE IN CELSIUS
  WCI - WIND CHILL INDEX
   HX - HEAT INDEX
  VSB - VISIBILITY
$$





USA.gov is the U.S. government's official web portal to all federal, state and local government web resources and services.